Newport, VT

4:41 PM EDT on April 22, 2018 (GMT -0400)
Newport State

Weather History for KEFK - September, 2013

Change the Weather History Date:

Sunday, September 15, 2013

  Actual Average Record
Temperature  
Mean Temperature 52 °F -  
Max Temperature 64 °F 68 °F 85 °F (1939)
Min Temperature 40 °F 46 °F 31 °F (2014)
Degree Days  
Heating Degree Days 13    
Growing Degree Days 2 (Base 50)    
Moisture  
Dew Point 44 °F    
Average Humidity 76    
Maximum Humidity 93    
Minimum Humidity 52    
Precipitation  
Precipitation 0.00 in - - ()
Sea Level Pressure  
Sea Level Pressure 30.07 in    
Wind  
Wind Speed 5 mph (SSW)    
Max Wind Speed 13 mph    
Max Gust Speed 18 mph    
Visibility 10 miles    
Events      
Averages and records for this station are not official NWS values.
T = Trace of Precipitation, MM = Missing Value Source: NWS Daily Summary

Daily Weather History Graph

Daily Weather History Graph

Search for Another Location

Airport or City:

Astronomy

Sep. 15, 2013 Rise Set
Actual Time 6:27 AM EDT 6:59 PM EDT
Civil Twilight 5:58 AM EDT 7:28 PM EDT
Nautical Twilight 5:23 AM EDT 8:03 PM EDT
Astronomical Twilight 4:47 AM EDT 8:39 PM EDT
Moon 4:32 PM EDT (9/15) 1:53 AM EDT (9/15)
Length of Visible Light 13h 30m
Length of Day
12h 31m
Waxing Gibbous, 82% of the Moon is Illuminated
Sep 15
Waxing Gibbous
Sep 19
Full
Sep 26
Last Quarter
Oct 4
New
Oct 11
First Quarter

Hourly Weather History & Observations

Time (EDT) Temp. Windchill Dew Point Humidity Pressure Visibility Wind Dir Wind Speed Gust Speed Precip Events Conditions
12:15 AM 44.8 °F 42.4 °F 42.1 °F 90% 30.07 in 10.0 mi South 4.6 mph - N/A   Clear
12:35 AM 44.1 °F 41.5 °F 41.2 °F 90% 30.07 in 10.0 mi South 4.6 mph - N/A   Clear
12:55 AM 43.2 °F 40.5 °F 40.5 °F 90% 30.07 in 10.0 mi SW 4.6 mph - N/A   Clear
1:15 AM 41.9 °F 39.0 °F 39.4 °F 91% 30.07 in 10.0 mi SSW 4.6 mph - N/A   Clear
1:35 AM 44.6 °F 42.2 °F 42.1 °F 91% 30.08 in 10.0 mi South 4.6 mph - N/A   Clear
1:55 AM 42.1 °F 39.2 °F 39.4 °F 90% 30.08 in 10.0 mi SSW 4.6 mph - N/A   Clear
2:15 AM 41.9 °F 38.2 °F 39.4 °F 91% 30.08 in 10.0 mi SSW 5.8 mph - N/A   Clear
2:35 AM 42.6 °F 39.9 °F 40.5 °F 92% 30.08 in 10.0 mi South 4.6 mph - N/A   Clear
2:55 AM 41.7 °F - 39.4 °F 91% 30.08 in 10.0 mi Calm Calm - N/A   Clear
3:15 AM 40.6 °F 37.5 °F 38.3 °F 91% 30.08 in 10.0 mi SW 4.6 mph - N/A   Clear
3:35 AM 41.0 °F 37.1 °F 38.7 °F 91% 30.08 in 10.0 mi SSW 5.8 mph - N/A   Clear
3:55 AM 40.1 °F 36.1 °F 37.8 °F 91% 30.08 in 7.0 mi SSW 5.8 mph - N/A   Clear
4:15 AM 41.2 °F 38.2 °F 39.2 °F 93% 30.08 in 10.0 mi South 4.6 mph - N/A   Clear
4:35 AM 40.1 °F 36.9 °F 37.9 °F 92% 30.08 in 10.0 mi South 4.6 mph - N/A   Clear
4:55 AM 41.2 °F 39.2 °F 39.0 °F 92% 30.09 in 10.0 mi South 3.5 mph - N/A   Clear
5:15 AM 40.3 °F 35.5 °F 38.1 °F 92% 30.09 in 10.0 mi SSW 6.9 mph - N/A   Clear
5:35 AM 41.2 °F 36.0 °F 39.0 °F 92% 30.09 in 10.0 mi SSW 8.1 mph - N/A   Clear
5:55 AM 40.6 °F 36.7 °F 38.3 °F 91% 30.10 in 10.0 mi SW 5.8 mph - N/A   Clear
6:15 AM 41.4 °F 37.6 °F 39.2 °F 92% 30.10 in 10.0 mi SSW 5.8 mph - N/A   Clear
6:35 AM 40.1 °F 36.9 °F 37.6 °F 91% 30.10 in 10.0 mi SSW 4.6 mph - N/A   Clear
6:55 AM 40.3 °F 35.5 °F 37.9 °F 91% 30.10 in 10.0 mi SSW 6.9 mph - N/A   Clear
7:15 AM 41.5 °F 38.6 °F 39.2 °F 91% 30.10 in 10.0 mi SW 4.6 mph - N/A   Clear
7:35 AM 41.9 °F 38.2 °F 39.4 °F 91% 30.10 in 10.0 mi SSW 5.8 mph - N/A   Clear
7:55 AM 43.7 °F 39.1 °F 41.2 °F 91% 30.11 in 10.0 mi SW 8.1 mph - N/A   Scattered Clouds
8:15 AM 45.3 °F 41.6 °F 42.3 °F 89% 30.11 in 10.0 mi SW 6.9 mph - N/A   Scattered Clouds
8:35 AM 46.6 °F - 43.5 °F 89% 30.11 in 10.0 mi SW 8.1 mph - N/A   Mostly Cloudy
8:55 AM 46.9 °F - 43.7 °F 88% 30.12 in 10.0 mi SSW 5.8 mph - N/A   Overcast
9:15 AM 49.1 °F - 44.6 °F 84% 30.12 in 10.0 mi SW 4.6 mph - N/A   Overcast
9:35 AM 52.5 °F - 46.4 °F 80% 30.11 in 10.0 mi South 5.8 mph - N/A   Mostly Cloudy
9:55 AM 54.3 °F - 45.0 °F 71% 30.12 in 10.0 mi South 5.8 mph - N/A   Scattered Clouds
10:15 AM 56.3 °F - 45.7 °F 68% 30.12 in 10.0 mi South 8.1 mph - N/A   Mostly Cloudy
10:35 AM 57.2 °F - 47.1 °F 69% 30.12 in 10.0 mi SSW 6.9 mph - N/A   Mostly Cloudy
10:55 AM 59.0 °F - 47.3 °F 65% 30.12 in 10.0 mi SW 9.2 mph - N/A   Mostly Cloudy
11:15 AM 59.2 °F - 47.3 °F 65% 30.10 in 10.0 mi SW 8.1 mph - N/A   Mostly Cloudy
11:35 AM 59.4 °F - 46.0 °F 61% 30.11 in 10.0 mi SSW 6.9 mph - N/A   Overcast
11:55 AM 59.5 °F - 46.2 °F 61% 30.11 in 10.0 mi SSW 3.5 mph - N/A   Overcast
12:15 PM 61.0 °F - 47.3 °F 61% 30.10 in 10.0 mi SW 4.6 mph - N/A   Mostly Cloudy
12:35 PM 60.4 °F - 46.0 °F 59% 30.09 in 10.0 mi SW 5.8 mph - N/A   Scattered Clouds
12:55 PM 62.6 °F - 46.9 °F 57% 30.09 in 10.0 mi West 5.8 mph - N/A   Mostly Cloudy
1:15 PM 63.7 °F - 46.6 °F 54% 30.09 in 10.0 mi WSW 12.7 mph 18.4 mph N/A   Mostly Cloudy
1:35 PM 64.2 °F - 46.4 °F 52% 30.07 in 10.0 mi WSW 11.5 mph - N/A   Scattered Clouds
1:55 PM 63.3 °F - 46.6 °F 54% 30.06 in 10.0 mi WSW 8.1 mph 16.1 mph N/A   Scattered Clouds
2:15 PM 64.0 °F - 45.9 °F 52% 30.06 in 10.0 mi WSW 10.4 mph - N/A   Scattered Clouds
2:35 PM 63.0 °F - 45.5 °F 53% 30.06 in 10.0 mi West 11.5 mph - N/A   Clear
2:55 PM 62.8 °F - 45.9 °F 54% 30.05 in 10.0 mi WSW 9.2 mph - N/A   Clear
3:15 PM 63.3 °F - 46.0 °F 53% 30.05 in 10.0 mi WNW 9.2 mph - N/A   Clear
3:35 PM 62.8 °F - 46.6 °F 55% 30.05 in 10.0 mi West 4.6 mph - N/A   Clear
3:55 PM 63.0 °F - 47.7 °F 57% 30.03 in 10.0 mi SW 9.2 mph - N/A   Scattered Clouds
4:15 PM 61.7 °F - 46.6 °F 58% 30.05 in 10.0 mi WSW 6.9 mph - N/A   Scattered Clouds
4:35 PM 61.9 °F - 46.9 °F 58% 30.04 in 10.0 mi WSW 4.6 mph - N/A   Scattered Clouds
4:55 PM 61.3 °F - 47.3 °F 60% 30.04 in 10.0 mi WSW 5.8 mph - N/A   Clear
5:15 PM 60.8 °F - 47.7 °F 62% 30.04 in 10.0 mi SW 5.8 mph - N/A   Clear
5:35 PM 59.5 °F - 48.4 °F 67% 30.04 in 10.0 mi SSW 5.8 mph - N/A   Clear
5:55 PM 59.4 °F - 47.5 °F 65% 30.04 in 10.0 mi South 4.6 mph - N/A   Clear
6:15 PM 58.1 °F - 48.0 °F 69% 30.04 in 10.0 mi SSW 3.5 mph - N/A   Clear
6:35 PM 57.2 °F - 48.0 °F 71% 30.04 in 10.0 mi SSW 3.5 mph - N/A   Clear
6:55 PM 57.2 °F - 47.5 °F 70% 30.03 in 10.0 mi South 3.5 mph - N/A   Clear
7:15 PM 57.0 °F - 46.4 °F 68% 30.02 in 10.0 mi South 6.9 mph - N/A   Clear
7:35 PM 56.5 °F - 46.8 °F 70% 30.02 in 10.0 mi South 4.6 mph - N/A   Clear
7:55 PM 55.6 °F - 47.7 °F 75% 30.02 in 10.0 mi South 3.5 mph - N/A   Scattered Clouds
8:15 PM 54.7 °F - 48.0 °F 78% 30.04 in 10.0 mi SSW 3.5 mph - N/A   Scattered Clouds
8:35 PM 53.8 °F - 48.4 °F 82% 30.04 in 10.0 mi SW 3.5 mph - N/A   Clear
8:55 PM 54.0 °F - 48.6 °F 82% 30.04 in 10.0 mi SSW 5.8 mph - N/A   Scattered Clouds
9:15 PM 55.2 °F - 48.2 °F 77% 30.04 in 10.0 mi South 6.9 mph - N/A   Mostly Cloudy
9:35 PM 55.9 °F - 48.2 °F 75% 30.04 in 10.0 mi SSW 6.9 mph - N/A   Overcast
9:55 PM 56.3 °F - 47.7 °F 73% 30.02 in 10.0 mi South 3.5 mph - N/A   Overcast
10:15 PM 56.5 °F - 47.5 °F 72% 30.02 in 10.0 mi Calm Calm - N/A   Overcast
10:35 PM 54.7 °F - 48.6 °F 80% 30.03 in 10.0 mi SW 4.6 mph - N/A   Scattered Clouds
10:55 PM 54.9 °F - 48.4 °F 79% 30.03 in 10.0 mi South 4.6 mph - N/A   Clear
11:15 PM 55.0 °F - 48.4 °F 78% 30.02 in 10.0 mi SSE 6.9 mph - N/A   Mostly Cloudy
11:35 PM 54.9 °F - 48.0 °F 78% 30.01 in 10.0 mi SE 3.5 mph - N/A   Scattered Clouds
11:55 PM 54.5 °F - 48.2 °F 79% 30.01 in 10.0 mi South 4.6 mph - N/A   Mostly Cloudy